CW5834 Weather Reports


Display with metric or nautical units.
time (UTC)temp
F
wind
direction
speed
MPH
gust
MPH
rain 1hr
in
rain 24hr
in
rain mn
in
humidity
%
barometer
mb
20180918234516 74 0.0 0.0 0.00 0.01 0.01 77 1017.2
20180918233521 76 0.0 0.0 0.00 0.01 0.01 74 1017.1
20180918232520 77 0.0 0.0 0.00 0.01 0.01 72 1017.1
20180918231521 78 0.0 0.0 0.00 0.01 0.01 70 1017.2
20180918230521 80 0.0 0.0 0.00 0.01 0.01 66 1017.3
20180918225520 81 0.0 0.0 0.00 0.01 0.01 66 1017.4
20180918224515 83 0.0 0.0 0.00 0.01 0.01 62 1017.4
20180918223516 86 0.0 0.0 0.00 0.01 0.01 55 1017.4
20180918222522 87 0.0 0.0 0.00 0.01 0.01 51 1017.5
20180918221522 86 334 0.0 3.0 0.00 0.01 0.01 54 1017.5
20180918220522 86 0.0 3.0 0.00 0.01 0.01 51 1017.5
20180918215522 87 0.0 4.0 0.00 0.01 0.01 54 1017.5
20180918214517 86 331 1.0 6.0 0.00 0.01 0.01 47 1017.5
20180918213522 88 326 0.0 3.0 0.00 0.01 0.01 44 1017.5
20180918212522 87 326 0.0 5.0 0.00 0.01 0.01 43 1017.4
20180918211522 87 325 2.0 5.0 0.00 0.01 0.01 44 1017.4
20180918210522 86 311 2.0 7.0 0.00 0.01 0.01 46 1017.4
20180918205522 87 298 2.0 6.0 0.00 0.01 0.01 46 1017.5
20180918204517 87 304 2.0 7.0 0.00 0.01 0.01 43 1017.5
20180918203522 87 331 3.0 6.0 0.00 0.01 0.01 44 1017.6
20180918202522 86 8 2.0 6.0 0.00 0.01 0.01 46 1017.5
20180918201522 87 309 1.0 7.0 0.00 0.01 0.01 45 1017.5
20180918200522 88 291 0.0 5.0 0.00 0.01 0.01 53 1017.8
20180918195522 87 300 0.0 5.0 0.00 0.10 0.01 52 1017.7
20180918194522 87 320 3.0 8.0 0.00 0.11 0.01 49 1017.8
20180918193517 86 300 3.0 7.0 0.00 0.13 0.01 53 1018.0
20180918192522 86 292 0.0 6.0 0.00 0.13 0.01 53 1018.1
20180918191522 85 288 1.0 7.0 0.00 0.13 0.01 57 1018.4
20180918190522 85 303 0.0 6.0 0.00 0.13 0.01 60 1018.4
20180918185522 83 300 0.0 6.0 0.00 0.14 0.01 60 1018.4
20180918184522 84 206 0.0 3.0 0.00 0.16 0.01 60 1018.4
20180918183517 84 206 2.0 7.0 0.00 0.16 0.01 65 1018.6
20180918182517 84 216 2.0 7.0 0.00 0.19 0.01 67 1018.8
20180918181522 84 273 0.0 4.0 0.00 0.22 0.01 67 1018.9
20180918180522 81 0.0 0.0 0.00 0.23 0.01 68 1018.9
20180918175522 82 286 0.0 1.0 0.00 0.23 0.01 68 1019.0
20180918174520 83 284 0.0 1.0 0.00 0.23 0.01 58 1019.2
20180918173700 82 284 0.0 3.0 0.00 0.23 0.01 66 1019.2
20180918171522 82 0.0 0.0 0.00 0.25 0.01 68 1019.5
20180918170522 84 0.0 0.0 0.00 0.25 0.01 65 1019.6
20180918165522 83 0.0 0.0 0.00 0.25 0.01 65 1019.7
20180918164522 82 281 0.0 5.0 0.00 0.25 0.01 67 1019.7
20180918163522 82 281 0.0 4.0 0.00 0.25 0.01 71 1019.9
20180918162517 81 280 0.0 4.0 0.00 0.25 0.01 69 1019.8
20180918161517 81 262 0.0 3.0 0.00 0.25 0.01 73 1019.9
20180918160522 79 256 0.0 6.0 0.00 0.25 0.01 75 1019.9
20180918155522 79 0.0 0.0 0.00 0.25 0.01 77 1019.9
20180918154522 79 245 0.0 2.0 0.00 0.25 0.01 75 1020.0
20180918153522 78 227 0.0 3.0 0.00 0.25 0.01 80 1020.1
20180918152521 78 200 0.0 6.0 0.00 0.25 0.01 79 1020.1
20180918151516 78 0.0 0.0 0.00 0.25 0.01 81 1020.0
20180918150522 77 0.0 5.0 0.00 0.25 0.01 82 1020.0
20180918145522 76 0.0 0.0 0.00 0.25 0.01 83 1020.1
20180918144522 76 0.0 4.0 0.00 0.25 0.01 84 1020.0
20180918143521 76 191 0.0 4.0 0.00 0.25 0.01 85 1019.9
20180918142522 75 0.0 0.0 0.00 0.27 0.01 85 1019.8
20180918141516 76 0.0 0.0 0.00 0.27 0.01 84 1019.9
20180918140516 75 0.0 0.0 0.00 0.27 0.01 86 1019.8
20180918135521 75 0.0 0.0 0.00 0.27 0.01 86 1019.6
20180918134522 74 0.0 0.0 0.00 0.27 0.01 87 1019.6
20180918133521 73 190 1.0 5.0 0.00 0.27 0.01 87 1019.6
20180918132521 72 194 0.0 4.0 0.00 0.27 0.01 90 1019.5
20180918131521 72 0.0 0.0 0.00 0.27 0.01 93 1019.4
20180918130516 71 0.0 0.0 0.00 0.27 0.01 93 1019.5
20180918125521 71 0.0 0.0 0.00 0.27 0.01 95 1019.6
20180918124522 70 0.0 0.0 0.00 0.27 0.01 95 1019.5
20180918123522 70 0.0 4.0 0.00 0.27 0.01 95 1019.4
20180918122521 69 0.0 3.0 0.00 0.27 0.01 95 1019.5
20180918121521 70 0.0 0.0 0.00 0.27 0.01 95 1019.5
20180918120521 69 0.0 0.0 0.00 0.27 0.01 95 1019.4
20180918115516 69 0.0 0.0 0.00 0.27 0.01 95 1019.4
20180918114522 69 0.0 0.0 0.00 0.27 0.01 95 1019.3
20180918113521 69 0.0 0.0 0.00 0.27 0.01 95 1019.2
20180918112521 69 0.0 0.0 0.00 0.27 0.01 95 1019.1
20180918111521 69 219 0.0 4.0 0.00 0.27 0.01 95 1019.2
20180918110521 69 222 0.0 3.0 0.00 0.27 0.01 95 1019.1
20180918105516 69 0.0 0.0 0.00 0.27 0.01 95 1019.0
20180918104521 69 0.0 0.0 0.00 0.27 0.01 95 1018.9
20180918103521 69 0.0 4.0 0.00 0.27 0.01 95 1018.9
20180918102521 69 222 0.0 4.0 0.00 0.27 0.01 95 1018.8
20180918101521 69 223 0.0 4.0 0.00 0.27 0.01 95 1018.7
20180918100521 69 0.0 0.0 0.00 0.27 0.01 94 1018.7
20180918095521 69 0.0 0.0 0.01 0.27 0.01 94 1018.8
20180918094516 69 0.0 0.0 0.01 0.27 0.01 94 1018.8
20180918093521 69 0.0 0.0 0.01 0.27 0.01 94 1018.7
20180918092521 69 0.0 0.0 0.01 0.27 0.01 94 1018.6
20180918091521 69 0.0 0.0 0.01 0.27 0.01 94 1018.6
20180918090521 69 0.0 0.0 0.01 0.27 0.01 94 1018.6
20180918085521 69 0.0 3.0 0.00 0.25 0.00 94 1018.5
20180918084516 69 0.0 0.0 0.00 0.25 0.00 94 1018.5
20180918083516 69 0.0 0.0 0.00 0.25 0.00 94 1018.6
20180918082521 69 0.0 0.0 0.00 0.25 0.00 94 1018.5
20180918081521 69 0.0 4.0 0.00 0.25 0.00 94 1018.5
20180918080521 69 0.0 0.0 0.00 0.25 0.00 94 1018.5
20180918075521 69 0.0 0.0 0.00 0.25 0.00 94 1018.6
20180918074521 69 0.0 0.0 0.00 0.25 0.00 94 1018.5
20180918073516 69 0.0 0.0 0.00 0.25 0.00 94 1018.5
20180918072521 69 0.0 0.0 0.00 0.25 0.00 94 1018.5
20180918071521 69 0.0 0.0 0.00 0.25 0.00 95 1018.5
20180918070521 69 0.0 2.0 0.00 0.25 0.00 94 1018.5
20180918065521 70 0.0 0.0 0.00 0.25 0.00 95 1018.5
20180918064521 70 0.0 0.0 0.00 0.25 0.00 95 1018.6
20180918063516 70 0.0 0.0 0.00 0.25 0.00 94 1018.5
20180918062516 70 0.0 0.0 0.00 0.25 0.00 94 1018.5
20180918061521 70 0.0 0.0 0.00 0.25 0.00 94 1018.5
20180918060521 70 223 0.0 2.0 0.00 0.25 0.00 94 1018.4
20180918055521 70 0.0 0.0 0.00 0.25 0.00 94 1018.6
20180918053521 70 0.0 0.0 0.00 0.27 0.00 94 1018.7
20180918052516 70 0.0 0.0 0.00 0.27 0.00 94 1018.7
20180918051520 70 0.0 0.0 0.00 0.27 0.00 94 1018.8
20180918050520 70 0.0 0.0 0.00 0.27 0.00 95 1018.8
20180918045521 70 0.0 0.0 0.00 0.27 0.00 95 1018.8
20180918044521 70 0.0 0.0 0.00 0.27 0.00 94 1018.9
20180918043521 70 0.0 0.0 0.00 0.27 0.00 94 1018.9
20180918042516 70 0.0 3.0 0.00 0.27 0.00 94 1018.8
20180918041515 70 0.0 0.0 0.00 0.27 0.00 94 1018.9
20180918040523 70 0.0 0.0 0.00 0.27 0.00 94 1018.9
20180918035521 70 0.0 0.0 0.00 0.27 0.24 94 1019.0
20180918034521 70 0.0 0.0 0.00 0.27 0.24 94 1019.0
20180918033521 70 0.0 0.0 0.00 0.27 0.24 94 1018.9
20180918032522 70 0.0 0.0 0.00 0.27 0.24 94 1018.9
20180918031521 70 0.0 0.0 0.00 0.27 0.24 94 1018.8
20180918030542 70 0.0 0.0 0.00 0.27 0.24 94 1018.8
20180918025520 70 0.0 0.0 0.00 0.27 0.24 94 1018.7
20180918024521 70 0.0 0.0 0.00 0.27 0.24 94 1018.7
20180918023521 70 0.0 0.0 0.00 0.27 0.24 93 1018.7
20180918022521 70 0.0 0.0 0.00 0.27 0.24 93 1018.7
20180918020521 70 0.0 0.0 0.00 0.27 0.24 93 1018.6
20180918015516 70 0.0 0.0 0.00 0.27 0.24 93 1018.6
20180918014521 70 0.0 0.0 0.00 0.27 0.24 93 1018.5
20180918013521 70 0.0 0.0 0.00 0.27 0.24 93 1018.4
20180918012521 70 0.0 0.0 0.00 0.27 0.24 92 1018.3
20180918011521 70 0.0 0.0 0.00 0.27 0.24 92 1018.0
20180918010521 70 0.0 0.0 0.00 0.28 0.24 92 1017.7
20180918005516 71 223 0.0 2.0 0.00 0.28 0.24 91 1017.5
20180918004516 71 0.0 1.0 0.00 0.29 0.24 91 1017.5
20180918003521 71 223 0.0 5.0 0.00 0.30 0.24 90 1017.3
20180918002521 71 223 0.0 5.0 0.00 0.31 0.24 90 1017.2
20180918001521 71 229 0.0 1.0 0.00 0.31 0.24 90 1017.1
20180918000521 71 0.0 0.0 0.00 0.32 0.24 90 1017.0
20180917235521 71 0.0 4.0 0.00 0.32 0.24 90 1016.8